User: anonymous   Login
Location: Ethel Rock
(53.4667°N, 4.5667°W)
Time: 09:39:41
(UTC+00:00)
Language:

NOSS 3-2 (A) - Orbit

View from above orbital plane
View from above orbital plane
View from above satellite
View from above satellite

Ground track
Ground track

The orbit data is extracted from the following two-line orbital elements,

1 28095U 03054A   20355.70317627 0.00000000  00000-0  00000-0 0    07
2 28095  63.4234 274.5718 0418644 359.2426   0.7574 13.41396512    08
Epoch (UTC): 20 December 2020 16:52:34
Eccentricity: 0.0418644
inclination: 63.4234°
perigee height: 791 km
apogee height: 1417 km
right ascension of ascending node: 274.5718°
argument of perigee: 359.2426°
revolutions per day: 13.41396512
mean anomaly at epoch: 0.7574°
orbit number at epoch: 0

The dashed part of the orbit path shows where the satellite is in the earth's shadow,  

DLR